TimeEST,TemperatureF,Dew PointF,Humidity,Sea Level PressureIn,VisibilityMPH,Wind Direction,Wind SpeedMPH,Gust SpeedMPH,PrecipitationIn,Events,Conditions,WindDirDegrees,DateUTC
12:53 AM,30.0,27.0,88,30.07,1.5,North,12.7,-,0.00,Snow,Light Snow,350,2013-03-08 05:53:00
1:53 AM,30.0,27.0,88,30.05,1.5,North,16.1,-,0.01,Snow,Light Snow,360,2013-03-08 06:53:00
2:29 AM,30.2,26.6,86,29.98,1.2,North,15.0,-,0.00,Snow,Light Snow,360,2013-03-08 07:29:00
2:53 AM,30.0,27.0,88,30.03,1.0,North,15.0,-,0.00,Snow,Light Snow,360,2013-03-08 07:53:00
3:26 AM,30.2,26.6,86,29.98,0.8,North,12.7,-,0.00,Snow,Light Snow,360,2013-03-08 08:26:00
3:53 AM,30.0,27.0,88,30.03,1.0,North,12.7,-,0.01,Snow,Light Snow,350,2013-03-08 08:53:00
4:31 AM,30.2,26.6,86,29.98,0.8,North,13.8,-,0.00,Snow,Light Snow,360,2013-03-08 09:31:00
4:53 AM,30.0,27.0,88,30.03,0.5,North,15.0,-,0.01,Fog-Snow,Snow,360,2013-03-08 09:53:00
5:53 AM,28.9,27.0,92,30.03,0.5,North,15.0,-,0.02,Fog-Snow,Snow,360,2013-03-08 10:53:00
6:10 AM,28.4,26.6,93,29.98,0.8,North,16.1,-,0.01,Snow,Light Snow,350,2013-03-08 11:10:00
6:22 AM,30.2,26.6,86,29.98,0.8,North,15.0,-,0.01,Snow,Light Snow,360,2013-03-08 11:22:00
6:27 AM,30.2,26.6,86,29.99,1.0,North,12.7,-,0.01,Snow,Light Snow,360,2013-03-08 11:27:00
6:42 AM,30.2,26.6,86,29.99,0.5,North,15.0,-,0.01,Fog-Snow,Snow,360,2013-03-08 11:42:00
6:53 AM,30.2,26.6,86,29.99,0.2,North,13.8,-,N/A,Fog-Snow,Snow,360,2013-03-08 11:53:00
7:11 AM,30.2,26.6,86,30.00,0.5,North,13.8,-,0.01,Fog-Snow,Snow,360,2013-03-08 12:11:00
7:44 AM,30.2,26.6,86,30.00,0.5,North,12.7,-,0.02,Snow,Light Snow,360,2013-03-08 12:44:00
7:53 AM,30.0,27.0,88,30.06,0.5,North,12.7,-,0.03,Snow,Light Snow,360,2013-03-08 12:53:00
8:26 AM,30.2,26.6,86,30.00,0.5,North,12.7,-,0.01,Fog-Snow,Snow,350,2013-03-08 13:26:00
8:53 AM,30.0,27.0,88,30.06,0.5,North,13.8,-,0.03,Snow,Light Snow,360,2013-03-08 13:53:00
9:07 AM,30.2,26.6,86,30.00,0.8,North,13.8,-,0.00,Snow,Light Snow,360,2013-03-08 14:07:00
9:25 AM,30.2,26.6,86,30.01,1.0,North,11.5,-,0.00,Snow,Light Snow,10,2013-03-08 14:25:00
9:30 AM,30.2,26.6,86,30.01,1.2,NNE,11.5,-,0.00,Snow,Light Snow,20,2013-03-08 14:30:00
9:45 AM,32.0,26.6,80,30.01,1.0,North,13.8,-,0.00,Snow,Light Snow,360,2013-03-08 14:45:00
9:53 AM,32.0,26.1,79,30.07,1.5,North,13.8,-,0.00,Snow,Light Snow,10,2013-03-08 14:53:00
9:57 AM,32.0,26.6,80,30.01,2.0,North,11.5,-,0.00,Snow,Light Snow,10,2013-03-08 14:57:00
10:00 AM,32.0,26.6,80,30.01,3.0,North,11.5,-,0.00,Snow,Light Snow,10,2013-03-08 15:00:00
10:01 AM,32.0,24.8,75,30.01,7.0,North,11.5,-,0.00,Snow,Light Snow,10,2013-03-08 15:01:00
10:53 AM,35.1,21.9,59,30.08,9.0,North,17.3,21.9,0.00,Snow,Light Snow,10,2013-03-08 15:53:00
11:28 AM,35.6,24.8,65,30.03,2.0,NNE,17.3,24.2,0.01,Snow,Light Snow,20,2013-03-08 16:28:00
11:30 AM,35.6,24.8,65,30.03,7.0,NNE,12.7,24.2,0.01,Snow,Light Snow,20,2013-03-08 16:30:00
11:33 AM,35.6,24.8,65,30.03,1.0,NNE,13.8,24.2,0.01,Snow,Light Snow,30,2013-03-08 16:33:00
11:39 AM,35.6,24.8,65,30.02,7.0,North,9.2,-,0.01,,Overcast,360,2013-03-08 16:39:00
11:53 AM,37.0,24.1,59,30.08,7.0,North,12.7,20.7,0.01,,Mostly Cloudy,10,2013-03-08 16:53:00
12:53 PM,39.0,23.0,53,30.08,10.0,North,11.5,-,N/A,,Overcast,360,2013-03-08 17:53:00
1:53 PM,42.1,21.0,43,30.08,10.0,North,10.4,21.9,N/A,,Overcast,10,2013-03-08 18:53:00
2:53 PM,43.0,19.9,40,30.08,10.0,North,9.2,-,N/A,,Overcast,10,2013-03-08 19:53:00
3:53 PM,45.0,19.0,36,30.10,10.0,NNE,8.1,-,N/A,,Mostly Cloudy,20,2013-03-08 20:53:00
4:53 PM,43.0,21.0,42,30.12,10.0,North,10.4,-,N/A,,Mostly Cloudy,10,2013-03-08 21:53:00
5:53 PM,44.1,18.0,35,30.15,10.0,North,11.5,-,N/A,,Mostly Cloudy,10,2013-03-08 22:53:00
6:53 PM,39.9,21.0,47,30.17,10.0,NNW,6.9,-,N/A,,Partly Cloudy,330,2013-03-08 23:53:00
7:53 PM,37.0,23.0,57,30.18,10.0,NNW,5.8,-,N/A,,Clear,340,2013-03-09 00:53:00
8:53 PM,36.0,21.0,55,30.20,10.0,NW,5.8,-,N/A,,Clear,320,2013-03-09 01:53:00
9:53 PM,33.1,21.0,61,30.22,10.0,NNW,6.9,-,N/A,,Clear,340,2013-03-09 02:53:00
10:53 PM,30.9,19.9,64,30.22,10.0,North,8.1,-,N/A,,Clear,350,2013-03-09 03:53:00
11:53 PM,34.0,19.0,54,30.22,10.0,NNW,8.1,-,N/A,,Clear,340,2013-03-09 04:53:00